www.pogodaiklimat.ru

Погода и климат >> Архив погоды >> Мексика >> Tuxpan


ПОГОДА в Tuxpan

  • Прогноз погоды в Tuxpan
  • Монитор погоды в Tuxpan
  • Климат города

АРХИВ ПОГОДЫ в Tuxpan

Время (UTC), дата Ветер
(напр.,м/с)
 
Видим.   Явления Облачность Т
(С)
Тd
(С)
f
(%)
Тe
(С)
Тes
(С)
Комфортность P
(гПа)
Po
(гПа)
Тmin
(С)
Tmax
(С)
R
(мм)
R24
(мм)
S
(см)
21 18.05 ЮВ 1 8000 м ясно +32.2 +28.2 79 +53 +70 опасность
перегрева
1009.5 1008.3
00 19.05 ЮВ 1 8000 м ясно +30.2 +27.5 86 +49 +50 опасность
перегрева
1008.1 1007.0 +20.8 +33.8
15 19.05 ЮВ 1 8000 м 6/6 330 м
[Cu med, cong]
+27.2 +24.7 86 +39 +43 очень
душно
1011.3 1010.1
18 19.05 ЮВ 1 8000 м 5/5 540 м
[Cu med, cong]
+31.6 +27.3 78 +50 +63 опасность
перегрева
1010.4 1009.2 +22.4 +33.0
21 19.05 СВ 1 8000 м 1/1 480 м
[Cu hum]
+32.6 +28.9 81 +56 +72 опасность
перегрева
1009.0 1007.9
00 20.05 ЮВ 1 8000 м 3/3 300 м
[Cu hum]
+30.8 +28.1 86 +51 +52 опасность
перегрева
1008.3 1007.1 +22.4 +34.4
03 20.05 ЮВ 1 1000 м ясно +28.8 +27.7 94 +47 +47 опасность
перегрева
1008.6 1007.4
06 20.05 штиль 0 1000 м ясно +27.8 +26.7 94 +43 +43 опасность
перегрева
1010.1 1009.0 +22.4 +34.4
09 20.05 штиль 0 1000 м ясно +27.4 +26.5 95 +42 +42 опасность
перегрева
1009.9 1008.8
12 20.05 штиль 0 1000 м 6/6 120 м
[Cu med, cong]
+26.8 +25.9 95 +40 +40 очень
душно
1010.0 1008.9 +25.4 +34.4
15 20.05 ЮВ 1 8000 м 8/5 180 м
[Cu med, cong As op]
+28.8 +27.4 92 +46 +49 опасность
перегрева
1012.9 1011.8
18 20.05 ЮВ 1 8000 м 6/4 450 м
[Cu med, cong As op]
+32.6 +29.1 82 +56 +68 опасность
перегрева
1012.8 1011.6 +25.4 +34.2
21 20.05 ЮВ 1 8000 м 4/3 500 м
[Cu med, cong As op]
+33.8 +29.9 80 +60 +71 опасность
перегрева
1011.1 1009.9
00 21.05 ЮВ 1 8000 м 6/6 300 м
[Cu med, cong]
+31.0 +28.6 87 +53 +53 опасность
перегрева
1010.3 1009.2 +25.4 +35.6
03 21.05 ЮВ 2 1000 м 6/6 270 м
[Cu med, cong]
+28.8 +26.6 88 +45 +45 опасность
перегрева
1010.2 1009.0
06 21.05 штиль 0 1000 м 6/6 180 м
[Cu med, cong]
+28.2 +26.8 92 +44 +44 опасность
перегрева
1011.4 1010.2 +25.4 +35.6
09 21.05 штиль 0 1000 м 5/5 150 м
[Cu med, cong]
+27.6 +25.6 89 +41 +41 опасность
перегрева
1010.6 1009.5
12 21.05 штиль 0 1000 м 4/4 120 м
[Cu med, cong]
+27.2 +26.3 95 +41 +41 опасность
перегрева
1011.3 1010.1 +25.8 +35.6
15 21.05 ЮВ 2 8000 м 9/5 210 м
[Frnb As op]
+28.2 +26.6 91 +44 +45 опасность
перегрева
1014.8 1013.7
18 21.05 ЮВ 2 8000 м слабая морось {гроза} 10/6 100 м
[Cb cap As op]
+27.4 +26.6 95 +42 +44 опасность
перегрева
1016.6 1015.4 0.0
21 21.05 ЮВ 1 8000 м в посл. час морось 9/4 180 м
[Frnb As op]
+28.0 +26.6 92 +43 +47 опасность
перегрева
1012.7 1011.6 0.7
00 22.05 ЮВ 2 8000 м {морось} 5/3 200 м
[Cu med, cong As op]
+29.2 +27.0 88 +46 +47 опасность
перегрева
1011.7 1010.5 0.7
03 22.05 ЮВ 1 1000 м 3/3 180 м
[Cu med, cong]
+27.0 +25.6 92 +40 +40 очень
душно
1013.9 1012.8
06 22.05 штиль 0 1000 м 4/4 120 м
[Cu med, cong]
+25.6 +24.7 95 +36 +36 очень
душно
1014.3 1013.2 +25.0 +30.8
09 22.05 штиль 0 1000 м 6/5 90 м
[Sc diur, vesp As op]
+24.6 +24.0 96 +34 +34 очень
душно
1012.9 1011.8
12 22.05 штиль 0 1000 м дождь 10/6
[Frnb As op]
+24.4 +24.1 98 +34 +34 очень
душно
1013.3 1012.1 12
15 22.05 ЮЗ 1 7000 м слабый дождь 10/4 60 м
[Frnb As op]
+24.8 +24.5 98 +35 +36 очень
душно
1014.8 1013.7 24
18 22.05 ЮВ 1 8000 м в посл. час дождь {морось} 5/3 100 м
[Cu med, cong Ac trans]
+27.0 +25.9 94 +40 +55 опасность
солнечного
удара
1014.9 1013.7 33
21 22.05 ЮВ 2 8000 м 5/4 420 м
[Cu med, cong Ac trans]
+30.6 +27.3 83 +49 +57 опасность
перегрева
1013.3 1012.1
00 23.05 ЮВ 2 8000 м 5/4 200 м
[Cu med, cong As trans]
+29.2 +27.3 90 +47 +48 опасность
перегрева
1012.2 1011.1 +23.2 +32.2
03 23.05 ЮВ 1 1000 м 3/3 150 м
[Cu hum]
+27.4 +26.3 94 +42 +42 опасность
перегрева
1010.7 1009.6
06 23.05 ЮВ 1 1000 м 3/3 150 м
[Cu hum]
+25.8 +24.7 94 +37 +37 очень
душно
1014.5 1013.3 +23.2 +32.2
09 23.05 ЮВ 1 1000 м 3/3 120 м
[Cu hum]
+24.6 +23.7 95 +33 +33 очень
душно
1015.1 1014.0
12 23.05 штиль 0 1000 м ясно +24.0 +23.4 96 +32 +32 очень
душно
1013.0 1011.8 +23.8 +32.2
15 23.05 ЮВ 1 8000 м 4/4 240 м
[Cu med, cong]
+27.2 +25.5 90 +40 +47 очень
душно
1016.3 1015.1
18 23.05 ЮВ 1 8000 м 5/5 480 м
[Cu med, cong]
+30.4 +26.6 80 +47 +60 опасность
перегрева
1015.5 1014.4 +23.6 +32.0
21 23.05 ЮВ 1 8000 м 1/1 660 м
[Cu hum]
+32.4 +27.3 75 +51 +67 опасность
перегрева
1014.0 1012.9
00 24.05 ЮВ 1 8000 м ясно +31.2 +28.6 86 +53 +54 опасность
перегрева
1013.2 1012.1 +23.8 +34.0
03 24.05 ЮВ 1 1000 м ясно +27.6 +26.2 92 +42 +42 опасность
перегрева
1014.8 1013.6
06 24.05 ЮВ 1 1000 м 5/5 90 м
[Cu med, cong]
+25.4 +24.8 96 +36 +36 очень
душно
1016.1 1014.9 +23.8 +34.0
09 24.05 ЮВ 1 1000 м 5/5 90 м
[Cu med, cong]
+24.2 +23.6 96 +33 +33 очень
душно
1014.7 1013.6
12 24.05 штиль 0 1000 м ясно +23.8 +23.2 96 +32 +32 очень
душно
1013.8 1012.7 +23.6 +34.0
15 24.05 ЮВ 1 8000 м 1/1 330 м
[Cu hum]
+27.2 +24.7 86 +39 +49 очень
душно
1017.5 1016.4
18 24.05 ЮВ 1 8000 м мгла 5/5 480 м
[Cu med, cong]
+31.6 +27.8 80 +51 +64 опасность
перегрева
1017.3 1016.2 +23.6 +33.4
21 24.05 ЮВ 1 8000 м ясно +33.0 +29.3 81 +58 +75 опасность
перегрева
1015.7 1014.5
00 25.05 ЮВ 1 8000 м 1/1 200 м
[Cu hum]
+31.0 +28.6 87 +53 +54 опасность
перегрева
1015.1 1014.0 +23.6 +34.8
03 25.05 ЮВ 1 1000 м 5/5 150 м
[Cu med, cong]
+28.2 +27.1 94 +45 +45 опасность
перегрева
1015.5 1014.3
06 25.05 штиль 0 1000 м 5/5 150 м
[Cu med, cong]
+26.8 +25.7 94 +40 +40 очень
душно
1015.5 1014.3 +23.6 +34.8
09 25.05 штиль 0 1000 м 5/5 90 м
[Cu med, cong]
+26.0 +25.4 97 +38 +38 очень
душно
1014.1 1012.9
12 25.05 штиль 0 1000 м ясно +24.4 +23.8 96 +33 +33 очень
душно
1014.9 1013.7 +24.2 +34.8
15 25.05 СЗ 2 8000 м {туман} 3/3 330 м
[Cu med, cong]
+27.0 +24.4 86 +38 +45 очень
душно
1016.4 1015.2

 

Местоположение метеостанции Tuxpan (Мексика): широта 20.95 долгота -97.40 высота над уровнем моря 28 м.

В архиве по умолчанию представлена погода в Tuxpan за последнюю неделю. Архивные данные за месяц целиком и за предыдущие месяцы, начиная с января 2011 года, Вы можете получить, выбрав интересующий диапазон дат из раскрывающегося списка и нажав кнопку "Ввод!".


*Определитесь, кто Вы:
робот инопланетянин человек

Внимание! Время в таблицах - всемирное. Для получения местного времени необходимо прибавить поправку, которая в Tuxpan равна -6 ч.

Смотрите также архив погоды в соседних городах и на ближайших метеорологических станциях:

Погода в Tulancingo (Мексика) (140 км)
Погода в Tampico (Мексика) (147 км)
Погода в Matlapa (Мексика) (152 км)
Погода в Jalapa (Мексика) (164 км)
Погода в Pachuca (Мексика) (168 км)
Погода в Tamuin (Мексика) (183 км)
Погода в Tlaxcala (Мексика) (202 км)
Погода в Tlaxcala Airport (Мексика) (202 км)
Погода в Puebla (Мексика) (226 км)
Погода в Cordoba-In-Veracruz (Мексика) (233 км)

Пояснения к столбцам:

Ветер - указаны скорость ветра в м/с - средняя за 10 мин, порывы в срок и между сроками (в фигурных скобках) и направление, откуда дует ветер: С - северный, СВ - северо-восточный, В - восточный, ЮВ - юго-восточный, Ю - южный, ЮЗ - юго-западный, З - западный, СЗ - северо-западный.
Видимость - горизонтальная дальность видимости в метрах или километрах. При видимости от 1 до 10 км при отсутствии осадков обычно наблюдается дымка, при ухудшении видимости до 1 км и менее - туман. В сухую погоду видимость может ухудшаться дымом, пылью или мглою.
Явления - указаны атмосферные явления, наблюдавшиеся в срок или в последний час перед сроком; фигурными скобками обозначены явления, наблюдавшиеся между сроками (за 1-3 часа до срока); квадратными скобками обозначены град или гололедные отложения с указанием их диаметра в мм.
Облачность - указаны через наклонную черту общая и нижняя облачность в баллах и высота нижней границы облаков в метрах; квадратными скобками обозначены формы облаков: Ci - перистые, Cs - перисто-слоистые, Cc - перисто-кучевые, Ac - высококучевые, As - высокослоистые, Sc - слоисто-кучевые, Ns - слоисто-дождевые, Cu - кучевые, Cb - кучево-дождевые. Подробнее классификацию облаков см. в Атласе облаков (PDF).
T - Температура воздуха - температура, измеренная на высоте 2 м над землей.
Td - Температура точки росы - температура, при понижении до которой содержащийся в воздухе водяной пар достигнет насыщения.
f - Относительная влажность воздуха - влажноcть воздуха, измеренная на высоте 2 м над землей.
Te - Эффективная температура - температура, которую ощущает одетый по сезону человек в тени. Характеристика душности погоды. При расчете учитывается влияние влажности воздуха и скорости ветра на теплоощущения человека.
Tes - Эффективная температура на солнце - температура, которую ощущает человек, с поправкой на солнечный нагрев. Характеристика знойности погоды. Зависит от высоты солнца над горизонтом, облачности и скорости ветра. Ночью, в пасмурную погоду, а также при ветре 12 м/с и более поправка равна нулю.
P - Атмосферное давление - приведенное к уровню моря атмосферное давление.
Po - Атмосферное давление - измеренное на уровне метеостанции атмосферное давление.
Tmin - Минимальная температура - минимум температуры воздуха на высоте 2 м над землей.
Tmax - Максимальная температура - максимум температуры воздуха на высоте 2 м над землей.
R - Количество осадков - Количество выпавших осадков за период времени, мм. При наведении курсора мыши на число - период времени, за который выпало указанное количество осадков.
R24 - Количество осадков - Количество выпавших осадков за 24 часа, мм.
S - Снежный покров - Высота снежного покрова, см. При наведении курсора мыши на число - состояние снежного покрова и степень покрытия местности в баллах.